O3B FM17

Last updated on Thu Dec 28 2023 00:03:05 GMT+0000 (Greenwich Mean Time)

1 44114U 19020C 23361.21337400 -.00000023 00000+0 00000+0 0 9995 2 44114 0.0621 350.4219 0002621 283.1487 86.3979 5.00116121 86354
UTC large
Height (km)
Speed (km/s)
/
Latitude / Longitude
Inclination (degrees)
Orbital Period (minutes)
Azimuth
Elevation
Range (km)
Doppler Factor

Next 0 passes for location: London (51.5072 / 0.1276)

Sorry there are no passes over London.